Regional Weather Roundup
Issued by NWS

Home | Current Version | Previous Version | Text Only | Print | Product List | Glossary Off
Versions: 1 2 3 4 5 6 7 8 9 10 11 12 13 14 15 16 17 18 19 20 21 22 23 24 25 26 27 28 29 30 31 32 33 34 35 36 37 38 39 40 41 42 43 44 45 46 47 48 49 50

000
ASUS43 KOAX 050210
RWRNE

WEATHER ROUNDUP FOR NEBRASKA
NATIONAL WEATHER SERVICE OMAHA NE
900 PM CDT MON MAY 04 2015

NOTES: SATELLITE DATA IS BEING USED TO AUGMENT CLOUD COVER ABOVE
       12000 FEET.
       "FAIR" INDICATES FEW OR NO CLOUDS BELOW 12,000 FEET WITH NO
       SIGNIFICANT WEATHER AND/OR OBSTRUCTIONS TO VISIBILITY.

  * THESE STATIONS DO NOT REPORT WEATHER SUCH AS RAIN...SNOW OR FOG.

NEZ001>004-019>022-054>056-050300-
NEBRASKA PANHANDLE

CITY           SKY/WX    TMP DP  RH WIND       PRES   REMARKS
SCOTTSBLUFF    PTCLDY    54  35  48 SE16      30.09R
ALLIANCE       CLOUDY    53  34  48 SE9       30.09R
CHADRON        CLOUDY    49  44  83 NE7       30.10R
KIMBALL        CLOUDY    48  44  87 SE14      30.09S
SIDNEY         CLOUDY    48  40  73 SE10      30.13R
$$

NEZ057>060-069>072-079>082-050300-
SOUTHWEST NEBRASKA

CITY           SKY/WX    TMP DP  RH WIND       PRES   REMARKS
NORTH PLATTE   CLOUDY    51  46  83 NE6       30.09S
IMPERIAL       CLOUDY    49  45  86 E8        30.10R
LEXINGTON      CLOUDY    53  50  91 NE9       30.08R
MCCOOK         CLOUDY    54  49  83 NE10      30.07S
OGALLALA       CLOUDY    49  45  87 NE3       30.10F
$$

NEZ005>010-023>029-035>040-094-050300-
NORTH CENTRAL NEBRASKA

CITY           SKY/WX    TMP DP  RH WIND       PRES   REMARKS
VALENTINE      CLOUDY    58  32  37 SE7       30.10R
AINSWORTH      CLOUDY    59  33  37 SE8       30.10S
BROKEN BOW     CLOUDY    54  49  83 NE6       30.09R
O`NEILL        CLOUDY    59  47  63 CALM      30.11S
ORD            CLOUDY    55  48  77 E7        30.09R
THEDFORD       CLOUDY    57  39  51 E5        30.11R
$$

NEZ041-046>049-061>064-073>077-083>087-050300-
SOUTH CENTRAL NEBRASKA

CITY           SKY/WX    TMP DP  RH WIND       PRES   REMARKS
GRAND ISLAND   CLOUDY    54  53  97 NE12      30.06S
AURORA         CLOUDY    55  55  97 NE13      30.05F
HASTINGS       CLOUDY    56  53  90 NE13      30.05S
HEBRON         LGT RAIN  60  57  89 E6        30.03R
HOLDREGE       CLOUDY    53  51  91 NE9       30.07R FOG
KEARNEY *      CLOUDY    54  50  87 NE13      30.07S
YORK           CLOUDY    55  55 100 E13       30.04F FOG
$$

NEZ011>018-030>034-042>045-050300-
NORTHEAST NEBRASKA

CITY           SKY/WX    TMP DP  RH WIND       PRES   REMARKS
NORFOLK        CLOUDY    56  51  84 E8        30.09S
ALBION         CLOUDY    55  49  82 E7        30.10R
BLAIR          CLOUDY    56  54  92 NE10      30.06S FOG
COLUMBUS *     CLOUDY    55  48  76 NE8       30.08R
FREMONT        CLOUDY    58  56  92 E8        30.06S
TEKAMAH        CLOUDY    58  55  90 NE7       30.07F
WAYNE          CLOUDY    56  51  84 E7        30.10S
$$

NEZ050>053-065>068-078-088>093-050300-
SOUTHEAST NEBRASKA

CITY           SKY/WX    TMP DP  RH WIND       PRES   REMARKS
LINCOLN        CLOUDY    59  56  89 NE10      30.04F
OMAHA EPPLEY   CLOUDY    60  57  89 N5        30.06S
BEATRICE       LGT RAIN  62  60  96 E7        30.02S
FALLS CITY     TSTM      65  63  93 E9        30.03R
NEBRASKA CITY  CLOUDY    62  62 100 E9        30.03S
PLATTSMOUTH    CLOUDY    63  60  91 NE9       30.05R FOG
$$

NEZ044-045-051>053-067-050300-
OMAHA AREA

CITY           SKY/WX    TMP DP  RH WIND       PRES   REMARKS
OMAHA EPPLEY   CLOUDY    60  57  89 N5        30.06S
BLAIR          CLOUDY    56  54  92 NE10      30.06S FOG
FREMONT        CLOUDY    58  56  92 E8        30.06S
MILLARD        CLOUDY    59  57  91 NE5       30.05S
OFFUTT AFB     CLOUDY    61  58  89 NE10      30.04S
PLATTSMOUTH    CLOUDY    63  60  91 NE9       30.05R FOG
$$



USA.gov is the U.S. government's official web portal to all federal, state and local government web resources and services.